DW5078 Weather Reports


Display with metric or nautical units.
time (UTC)temp
F
wind
direction
speed
MPH
gust
MPH
rain 1hr
in
rain 24hr
in
rain mn
in
humidity
%
barometer
mb
20260508142107 60 295 2.0 5.0 0.00 0.00 0.00 99 1010.2
20260508141107 61 294 0.0 3.0 0.00 0.00 0.00 99 1010.4
20260508140106 60 293 0.0 3.0 0.00 0.00 0.00 99 1010.4
20260508135108 61 294 0.0 0.0 0.00 0.00 0.00 99 1010.3
20260508134107 61 294 0.0 0.0 0.00 0.00 0.00 99 1010.4
20260508133108 60 294 0.0 1.0 0.00 0.00 0.00 99 1010.3
20260508132108 59 294 0.0 1.0 0.00 0.00 0.00 99 1010.3
20260508131108 59 293 0.0 2.0 0.00 0.00 0.00 99 1010.2
20260508130108 59 293 1.0 2.0 0.00 0.00 0.00 99 1010.4
20260508125108 60 292 0.0 1.0 0.00 0.00 0.00 97 1011.0
20260508124108 60 292 0.0 1.0 0.00 0.00 0.00 97 1010.5
20260508123108 60 292 0.0 1.0 0.00 0.00 0.00 97 1010.9
20260508122108 60 292 0.0 1.0 0.00 0.00 0.00 97 1010.4
20260508121108 60 292 0.0 1.0 0.00 0.00 0.00 97 1010.7
20260508120108 60 292 0.0 1.0 0.00 0.00 0.00 97 1010.4
20260508115108 60 292 0.0 1.0 0.00 0.00 0.00 97 1010.5
20260508114108 60 292 0.0 1.0 0.00 0.00 0.00 97 1010.4
20260508113108 60 292 0.0 1.0 0.00 0.00 0.00 97 1010.3
20260508112108 60 292 0.0 1.0 0.00 0.00 0.00 97 1010.3
20260508111108 60 292 0.0 1.0 0.00 0.00 0.00 97 1010.2
20260508110108 60 292 0.0 1.0 0.00 0.00 0.00 97 1010.5
20260508105108 60 292 0.0 1.0 0.00 0.00 0.00 97 1010.9
20260508104108 60 292 0.0 1.0 0.00 0.00 0.00 97 1010.3
20260508103108 60 292 0.0 1.0 0.00 0.00 0.00 97 1011.0
20260508102108 60 292 0.0 1.0 0.00 0.00 0.00 97 1009.8
20260508101108 60 292 0.0 1.0 0.00 0.00 0.00 97 1010.0
20260508100108 60 292 0.0 1.0 0.00 0.00 0.00 97 1009.3
20260508095108 60 292 0.0 1.0 0.00 0.00 0.00 97 1009.4
20260508094108 60 292 0.0 1.0 0.00 0.00 0.00 97 1009.6
20260508093108 59 291 0.0 1.0 0.00 0.00 0.00 98 1009.6
20260508092108 58 292 0.0 1.0 0.00 0.00 0.00 98 1009.8
20260508091108 58 291 1.0 2.0 0.00 0.00 0.00 97 1009.6
20260508090108 58 291 0.0 0.0 0.00 0.00 0.00 97 1009.9
20260508085108 58 291 0.0 0.0 0.00 0.00 0.00 97 1010.3
20260508084108 58 291 0.0 1.0 0.00 0.00 0.00 97 1010.5
20260508083108 58 291 0.0 3.0 0.00 0.00 0.00 96 1009.7
20260508082108 58 291 1.0 2.0 0.00 0.00 0.00 95 1009.9
20260508081108 59 291 0.0 2.0 0.00 0.00 0.00 92 1010.5
20260508080108 61 291 0.0 3.0 0.00 0.00 0.00 88 1011.0
20260508075108 62 284 0.0 1.0 0.00 0.00 0.00 86 1011.8
20260508074108 61 284 0.0 1.0 0.00 0.00 0.00 85 1011.5
20260508073108 61 284 0.0 0.0 0.00 0.00 0.00 85 1011.2
20260508072108 61 284 0.0 1.0 0.00 0.00 0.00 85 1010.8
20260508071108 60 283 0.0 0.0 0.00 0.00 0.00 85 1011.0
20260508070108 60 284 0.0 0.0 0.00 0.00 0.00 84 1011.1
20260508065108 61 284 0.0 0.0 0.00 0.00 0.00 84 1011.0
20260508064108 61 284 0.0 0.0 0.00 0.00 0.00 84 1011.4
20260508063108 61 284 0.0 0.0 0.00 0.00 0.00 84 1011.7
20260508062108 60 284 0.0 0.0 0.00 0.00 0.00 84 1011.6
20260508061108 60 284 0.0 0.0 0.00 0.00 0.00 83 1011.6
20260508060108 61 284 0.0 0.0 0.00 0.00 0.00 83 1011.4
20260508055108 61 284 0.0 0.0 0.00 0.00 0.00 82 1011.5
20260508054108 61 284 0.0 0.0 0.00 0.00 0.00 81 1011.5
20260508053108 61 284 0.0 0.0 0.00 0.00 0.00 81 1011.5
20260508052108 62 284 0.0 0.0 0.00 0.00 0.00 81 1011.7
20260508051107 62 284 0.0 0.0 0.00 0.00 0.00 80 1011.6
20260508050108 62 284 0.0 0.0 0.00 0.00 0.00 80 1011.5
20260508045107 62 284 0.0 0.0 0.00 0.00 0.00 79 1011.6
20260508044107 62 284 0.0 0.0 0.00 0.00 0.00 79 1011.6
20260508043107 62 284 0.0 0.0 0.00 0.00 0.00 79 1011.4
20260508042107 62 284 0.0 0.0 0.00 0.00 0.00 78 1011.4
20260508041107 62 284 0.0 0.0 0.00 0.00 0.00 78 1011.6
20260508040107 62 284 0.0 0.0 0.00 0.00 0.00 77 1011.6
20260508035107 63 284 0.0 0.0 0.00 0.00 0.00 77 1011.5
20260508034107 63 284 0.0 0.0 0.00 0.00 0.00 76 1011.5
20260508033107 63 284 0.0 1.0 0.00 0.00 0.00 76 1011.4
20260508032107 64 283 0.0 1.0 0.00 0.00 0.00 75 1011.4
20260508031107 64 284 1.0 1.0 0.00 0.00 0.00 75 1011.3
20260508030107 64 284 0.0 1.0 0.00 0.00 0.00 74 1011.3
20260508025107 64 284 0.0 1.0 0.00 0.00 0.00 73 1011.3
20260508024107 64 284 0.0 1.0 0.00 0.00 0.00 72 1011.2
20260508023107 65 284 0.0 1.0 0.00 0.00 0.00 71 1011.1
20260508022107 65 284 0.0 1.0 0.00 0.00 0.00 70 1010.9
20260508021107 66 284 0.0 1.0 0.00 0.00 0.00 69 1010.9
20260508020107 66 284 0.0 1.0 0.00 0.00 0.00 69 1010.6
20260508015107 66 284 0.0 1.0 0.00 0.00 0.00 68 1010.8
20260508014107 66 284 0.0 1.0 0.00 0.00 0.00 68 1010.8
20260508013107 67 284 0.0 2.0 0.00 0.00 0.00 67 1010.8
20260508012107 67 284 0.0 3.0 0.00 0.00 0.00 67 1010.7
20260508011107 67 284 0.0 3.0 0.00 0.00 0.00 67 1010.8
20260508010107 68 284 0.0 2.0 0.00 0.00 0.00 67 1010.8
20260508005107 68 284 1.0 2.0 0.00 0.00 0.00 67 1010.6
20260508004107 69 284 0.0 3.0 0.00 0.00 0.00 66 1010.6
20260508003107 69 284 0.0 4.0 0.00 0.00 0.00 65 1010.7
20260508002107 70 284 1.0 5.0 0.00 0.00 0.00 64 1010.8
20260508001107 71 284 2.0 5.0 0.00 0.00 0.00 62 1010.8
20260508000107 71 284 1.0 3.0 0.00 0.00 0.00 56 1010.8
20260507235107 72 284 3.0 4.0 0.00 0.00 0.00 56 1010.6
20260507234107 71 283 1.0 3.0 0.00 0.00 0.00 56 1010.7
20260507233107 72 284 1.0 4.0 0.00 0.00 0.00 57 1010.6
20260507232107 72 284 1.0 4.0 0.00 0.00 0.00 56 1010.7
20260507231107 72 283 3.0 4.0 0.00 0.00 0.00 56 1010.9
20260507230107 72 284 2.0 4.0 0.00 0.00 0.00 58 1010.8
20260507225107 72 284 1.0 5.0 0.00 0.00 0.00 57 1010.8
20260507224107 72 284 1.0 5.0 0.00 0.00 0.00 56 1011.0
20260507223107 74 284 3.0 5.0 0.00 0.00 0.00 54 1011.0
20260507222107 75 284 0.0 1.0 0.00 0.00 0.00 49 1011.0
20260507221107 75 284 0.0 1.0 0.00 0.00 0.00 48 1011.0
20260507220107 75 283 0.0 1.0 0.00 0.00 0.00 48 1011.1
20260507215107 75 284 0.0 2.0 0.00 0.00 0.00 48 1011.2
20260507214107 75 284 0.0 3.0 0.00 0.00 0.00 48 1011.3
20260507213107 76 284 0.0 2.0 0.00 0.00 0.00 47 1011.4
20260507212107 76 284 0.0 1.0 0.00 0.00 0.00 48 1011.5
20260507211107 76 284 0.0 1.0 0.00 0.00 0.00 48 1011.6
20260507210107 76 284 1.0 1.0 0.00 0.00 0.00 47 1011.8
20260507205106 76 284 0.0 4.0 0.00 0.00 0.00 47 1011.7
20260507204106 76 284 0.0 2.0 0.00 0.00 0.00 47 1011.7
20260507203106 76 284 0.0 2.0 0.00 0.00 0.00 48 1011.9
20260507202106 76 284 4.0 4.0 0.00 0.00 0.00 48 1012.1
20260507201106 76 284 0.0 4.0 0.00 0.00 0.00 48 1012.2
20260507200106 77 283 2.0 3.0 0.00 0.00 0.00 46 1012.3
20260507195106 78 284 0.0 3.0 0.00 0.00 0.00 46 1012.5
20260507194106 77 284 1.0 2.0 0.00 0.00 0.00 49 1012.6
20260507193106 77 284 0.0 2.0 0.00 0.00 0.00 46 1012.8
20260507192106 76 284 1.0 3.0 0.00 0.00 0.00 47 1013.0
20260507191106 76 283 0.0 5.0 0.00 0.00 0.00 50 1013.1
20260507190106 75 284 0.0 6.0 0.00 0.00 0.00 50 1013.2
20260507185106 76 284 1.0 5.0 0.00 0.00 0.00 49 1013.3
20260507184106 76 352 1.0 4.0 0.00 0.00 0.00 47 1013.4
20260507183106 76 353 1.0 3.0 0.00 0.00 0.00 49 1013.6
20260507182106 76 352 2.0 3.0 0.00 0.00 0.00 49 1013.7
20260507181106 75 353 1.0 4.0 0.00 0.00 0.00 51 1013.8
20260507180106 75 353 0.0 3.0 0.00 0.00 0.00 49 1014.0
20260507175106 74 353 2.0 3.0 0.00 0.00 0.00 51 1014.1
20260507174106 74 352 1.0 2.0 0.00 0.00 0.00 51 1014.4
20260507173106 73 352 0.0 2.0 0.00 0.00 0.00 53 1014.8
20260507172106 72 353 0.0 1.0 0.00 0.00 0.00 54 1015.0
20260507171106 71 352 2.0 6.0 0.00 0.00 0.00 54 1015.3
20260507170106 71 353 0.0 1.0 0.00 0.00 0.00 55 1015.6
20260507165106 71 353 1.0 3.0 0.00 0.00 0.00 55 1015.7
20260507164106 72 6 2.0 2.0 0.00 0.00 0.00 56 1015.8
20260507163106 72 7 0.0 2.0 0.00 0.00 0.00 54 1015.9
20260507162106 71 7 0.0 2.0 0.00 0.00 0.00 55 1015.8
20260507161106 71 7 1.0 4.0 0.00 0.00 0.00 56 1015.9
20260507160106 70 6 0.0 4.0 0.00 0.00 0.00 58 1015.8
20260507155106 70 7 1.0 2.0 0.00 0.00 0.00 59 1015.9
20260507154106 69 6 0.0 4.0 0.00 0.00 0.00 59 1016.0
20260507153106 69 6 0.0 2.0 0.00 0.00 0.00 58 1016.1
20260507152106 68 6 1.0 1.0 0.00 0.00 0.00 62 1016.3
20260507151106 68 6 0.0 2.0 0.00 0.00 0.00 61 1016.4
20260507150106 68 7 0.0 3.0 0.00 0.00 0.00 61 1016.5
20260507145106 69 6 2.0 3.0 0.00 0.00 0.00 60 1016.5
20260507144106 70 6 0.0 1.0 0.00 0.00 0.00 63 1016.5
20260507143106 68 6 0.0 1.0 0.00 0.00 0.00 66 1016.6